Location: Bremen
(53.0796°N, 8.8241°E)
Time: 03:07:06
(UTC+01:00)

ISS - Pass Details

Date: 13 November 2017
Orbit: 402 x 407 km, 51.6° (Epoch: 20 November)

Event Time Altitude Azimuth Distance (km) Brightness Sun altitude
Exits shadow 06:35:23 13° 256° (WSW) 1,299 -1.8 -10.5°
Maximum altitude 06:37:22 21° 212° (SSW) 978 -2.0 -10.2°
Drops below altitude 10° 06:39:53 10° 162° (SSE) 1,452 -0.5 -9.8°
Sets 06:42:16 0° 145° (SE) 2,308 0.9 -9.5°
